Home   Weather   Trois-Rivieres   Past weeks

Flag for Canada Past Weather in Trois-Rivieres, Quebec, Canada — Yesterday and Last 2 Weeks

Now
45 °F

Cool.


Feels Like: 40 °F
Forecast: 42 / 57 °F
Wind: 12 mph from Northwest

Location: Trois Rivieres

Current Time: Sep 25, 2016 at 8:22:13 AM

Latest Report: Sep 25, 2016 at 8:00 AM


Visibility: N/A

Pressure: 30.14 "Hg

Humidity: 80%

Dew Point: 39 °F

Location of Trois-RivieresLocation

Past Weather in Trois-Rivieres — Graph

°F

Trois-Rivieres Temperature Yesterday

Maximum temperature yesterday: 59 °F (at 4:00 PM)
Minimum temperature yesterday: 45 °F (at 6:00 AM)
Average temperature yesterday: 52 °F

High & Low Weather Summary for the Past Weeks

 TemperatureHumidityPressure
High76 °F (Sep 10, 2:00 PM)100% (Sep 17, 11:00 PM)30.32 "Hg (Sep 17, 11:00 PM)
Low44 °F (Sep 25, 7:00 AM)33% (Sep 24, 3:00 PM)29.56 "Hg (Sep 11, 6:00 AM)
Average61 °F75%30.04 "Hg
* Reported Sep 10 7:00 AM — Sep 25 7:00 AM, Trois-Rivieres, Weather by CustomWeather, © 2016

Note: Actual official high and low records may vary slightly from our data, if they occured in-between our weather recording intervals... More about our weather records

Advertising

Trois-Rivieres Weather History for the Previous 24 Hours

Scroll right to see more
 ConditionsComfort  
Time TempWeatherWind HumidityBarometerVisibility
7:00 AM
Sun, Sep 25
44 °FQuite cool.8 mph86%30.13 "HgN/A
6:00 AM44 °FQuite cool.10 mph84%30.12 "HgN/A
5:00 AM45 °FCool.9 mph83%30.12 "HgN/A
4:00 AM45 °FCool.8 mph84%30.11 "HgN/A
3:00 AM45 °FCool.9 mph81%30.12 "HgN/A
2:00 AM46 °FCool.8 mph74%30.12 "HgN/A
1:00 AM48 °FCool.8 mph73%30.11 "HgN/A
12:00 AM49 °FCool.7 mph70%30.12 "HgN/A
11:00 PM
Sat, Sep 24
50 °FCool.6 mph68%30.13 "HgN/A
10:00 PM49 °FCool.3 mph69%30.14 "HgN/A
9:00 PM52 °FCool.5 mph62%30.14 "HgN/A
8:00 PM52 °FCool.6 mph57%30.13 "HgN/A
7:00 PM53 °FCool.3 mph61%30.10 "HgN/A
6:00 PM56 °FRefreshingly cool.6 mph43%30.09 "HgN/A
5:00 PM57 °FRefreshingly cool.10 mph41%30.09 "HgN/A
4:00 PM59 °FRefreshingly cool.9 mph40%30.07 "HgN/A
3:00 PM59 °FRefreshingly cool.12 mph33%30.07 "HgN/A
2:00 PM59 °FRefreshingly cool.12 mph36%30.08 "HgN/A
1:00 PM56 °FRefreshingly cool.12 mph42%30.10 "HgN/A
12:00 PM58 °FRefreshingly cool.13 mph50%30.11 "HgN/A
11:00 AM57 °FRefreshingly cool.10 mph57%30.12 "HgN/A
10:00 AM54 °FCool.1 mph73%30.14 "HgN/A
9:00 AM49 °FCool.2 mph80%30.15 "HgN/A
8:00 AM47 °FCool.3 mph83%30.15 "HgN/A
Weather by CustomWeather, © 2016

See weather overviewHow to use our weather pages